Location: Newark
(25.3833°N, 97.4000°E)
Time: 22:56:23
(UTC+00:00)

First-Move - Pass Details

Date: 21 February 2020
Orbit: 577 x 668 km, 97.6° (Epoch: 28 March)

Event Time Altitude Azimuth Distance (km) Brightness Sun altitude
Rises 12:00:28 0° 209° (SSW) 2,838 ? -8.2°
Reaches altitude 10° 12:03:43 10° 237° (WSW) 1,960 ? -8.9°
Maximum altitude 12:05:43 13° 266° (W) 1,777 ? -9.4°
Drops below altitude 10° 12:07:45 10° 294° (WNW) 1,992 ? -9.8°
Sets 12:11:08 0° 322° (NW) 2,925 ? -10.6°
